Year,Month,Day,Hour,Minute,Value (Times are PST for temperature in C)
2020,12,06,00,00,4.10
2020,12,06,00,01,4.10
2020,12,06,00,02,4.10
2020,12,06,00,03,4.00
2020,12,06,00,04,4.00
2020,12,06,00,05,4.00
2020,12,06,00,06,3.90
2020,12,06,00,07,3.90
2020,12,06,00,08,3.90
2020,12,06,00,09,3.90
2020,12,06,00,10,3.90
2020,12,06,00,11,3.90
2020,12,06,00,12,3.90
2020,12,06,00,13,3.90
2020,12,06,00,14,4.00
2020,12,06,00,15,4.00
2020,12,06,00,16,4.00
2020,12,06,00,17,4.00
2020,12,06,00,18,4.10
2020,12,06,00,19,4.00
2020,12,06,00,20,3.90
2020,12,06,00,21,3.90
2020,12,06,00,22,3.90
2020,12,06,00,23,3.90
2020,12,06,00,24,3.90
2020,12,06,00,25,3.90
2020,12,06,00,26,3.90
2020,12,06,00,27,3.90
2020,12,06,00,28,3.80
2020,12,06,00,29,3.80
2020,12,06,00,30,3.80
2020,12,06,00,31,3.80
2020,12,06,00,32,3.80
2020,12,06,00,33,3.80
2020,12,06,00,34,3.80
2020,12,06,00,35,3.80
2020,12,06,00,36,3.80
2020,12,06,00,37,3.90
2020,12,06,00,38,3.90
2020,12,06,00,39,3.90
2020,12,06,00,40,3.90
2020,12,06,00,41,4.00
2020,12,06,00,42,3.90
2020,12,06,00,43,3.90
2020,12,06,00,44,3.90
2020,12,06,00,45,3.80
2020,12,06,00,46,3.80
2020,12,06,00,47,3.70
2020,12,06,00,48,3.70
2020,12,06,00,49,3.60
2020,12,06,00,50,3.60
2020,12,06,00,51,3.50
2020,12,06,00,52,3.40
2020,12,06,00,53,3.30
2020,12,06,00,54,3.30
2020,12,06,00,55,3.20
2020,12,06,00,56,3.20
2020,12,06,00,57,3.20
2020,12,06,00,58,3.20
2020,12,06,00,59,3.20
2020,12,06,01,00,3.20
2020,12,06,01,01,3.20
2020,12,06,01,02,3.20
2020,12,06,01,03,3.20
2020,12,06,01,04,3.10
2020,12,06,01,05,3.10
2020,12,06,01,06,3.20
2020,12,06,01,07,3.20
2020,12,06,01,08,3.20
2020,12,06,01,09,3.20
2020,12,06,01,10,3.20
2020,12,06,01,11,3.20
2020,12,06,01,12,3.30
2020,12,06,01,13,3.30
2020,12,06,01,14,3.30
2020,12,06,01,15,3.30
2020,12,06,01,16,3.30
2020,12,06,01,17,3.40
2020,12,06,01,18,3.40
2020,12,06,01,19,3.40
2020,12,06,01,20,3.30
2020,12,06,01,21,3.30
2020,12,06,01,22,3.30
2020,12,06,01,23,3.30
2020,12,06,01,24,3.30
2020,12,06,01,25,3.20
2020,12,06,01,26,3.20
2020,12,06,01,27,3.20
2020,12,06,01,28,3.10
2020,12,06,01,29,3.10
2020,12,06,01,30,3.00
2020,12,06,01,31,3.00
2020,12,06,01,32,2.90
2020,12,06,01,33,2.90
2020,12,06,01,34,2.90
2020,12,06,01,35,2.90
2020,12,06,01,36,2.90
2020,12,06,01,37,2.90
2020,12,06,01,38,2.90
2020,12,06,01,39,2.90
2020,12,06,01,40,2.90
2020,12,06,01,41,2.90
2020,12,06,01,42,2.90
2020,12,06,01,43,2.90
2020,12,06,01,44,2.90
2020,12,06,01,45,2.80
2020,12,06,01,46,2.80
2020,12,06,01,47,2.80
2020,12,06,01,48,2.80
2020,12,06,01,49,2.80
2020,12,06,01,50,2.80
2020,12,06,01,51,2.80
2020,12,06,01,52,2.90
2020,12,06,01,53,2.90
2020,12,06,01,54,2.90
2020,12,06,01,55,2.90
2020,12,06,01,56,2.90
2020,12,06,01,57,2.90
2020,12,06,01,58,2.90
2020,12,06,01,59,2.90
2020,12,06,02,00,2.90
2020,12,06,02,01,2.90
2020,12,06,02,02,2.90
2020,12,06,02,03,2.90
2020,12,06,02,04,3.00
2020,12,06,02,05,3.00
2020,12,06,02,06,3.00
2020,12,06,02,07,3.00
2020,12,06,02,08,3.00
2020,12,06,02,09,3.10
2020,12,06,02,10,3.10
2020,12,06,02,11,3.10
2020,12,06,02,12,3.10
2020,12,06,02,13,3.10
2020,12,06,02,14,3.10
2020,12,06,02,15,3.20
2020,12,06,02,16,3.20
2020,12,06,02,17,3.20
2020,12,06,02,18,3.20
2020,12,06,02,19,3.30
2020,12,06,02,20,3.30
2020,12,06,02,21,3.30
2020,12,06,02,22,3.30
2020,12,06,02,23,3.30
2020,12,06,02,24,3.30
2020,12,06,02,25,3.30
2020,12,06,02,26,3.30
2020,12,06,02,27,3.30
2020,12,06,02,28,3.30
2020,12,06,02,29,3.30
2020,12,06,02,30,3.30
2020,12,06,02,31,3.30
2020,12,06,02,32,3.30
2020,12,06,02,33,3.30
2020,12,06,02,34,3.30
2020,12,06,02,35,3.30
2020,12,06,02,36,3.40
2020,12,06,02,37,3.40
2020,12,06,02,38,3.40
2020,12,06,02,39,3.50
2020,12,06,02,40,3.50
2020,12,06,02,41,3.50
2020,12,06,02,42,3.40
2020,12,06,02,43,3.40
2020,12,06,02,44,3.50
2020,12,06,02,45,3.50
2020,12,06,02,46,3.50
2020,12,06,02,47,3.50
2020,12,06,02,48,3.60
2020,12,06,02,49,3.60
2020,12,06,02,50,3.70
2020,12,06,02,51,3.70
2020,12,06,02,52,3.80
2020,12,06,02,53,3.90
2020,12,06,02,54,3.90
2020,12,06,02,55,3.90
2020,12,06,02,56,3.90
2020,12,06,02,57,3.90
2020,12,06,02,58,3.90
2020,12,06,02,59,3.90
2020,12,06,03,00,3.80
2020,12,06,03,01,3.80
2020,12,06,03,02,3.80
2020,12,06,03,03,3.80
2020,12,06,03,04,3.70
2020,12,06,03,05,3.70
2020,12,06,03,06,3.70
2020,12,06,03,07,3.70
2020,12,06,03,08,3.70
2020,12,06,03,09,3.60
2020,12,06,03,10,3.60
2020,12,06,03,11,3.60
2020,12,06,03,12,3.60
2020,12,06,03,13,3.60
2020,12,06,03,14,3.60
2020,12,06,03,15,3.60
2020,12,06,03,16,3.60
2020,12,06,03,17,3.60
2020,12,06,03,18,3.60
2020,12,06,03,19,3.60
2020,12,06,03,20,3.60
2020,12,06,03,21,3.60
2020,12,06,03,22,3.60
2020,12,06,03,23,3.60
2020,12,06,03,24,3.60
2020,12,06,03,25,3.60
2020,12,06,03,26,3.60
2020,12,06,03,27,3.70
2020,12,06,03,28,3.70
2020,12,06,03,29,3.70
2020,12,06,03,30,3.70
2020,12,06,03,31,3.80
2020,12,06,03,32,3.90
2020,12,06,03,33,3.90
2020,12,06,03,34,4.00
2020,12,06,03,35,4.10
2020,12,06,03,36,4.10
2020,12,06,03,37,4.10
2020,12,06,03,38,4.10
2020,12,06,03,39,4.10
2020,12,06,03,40,4.10
2020,12,06,03,41,4.20
2020,12,06,03,42,4.10
2020,12,06,03,43,4.10
2020,12,06,03,44,4.20
2020,12,06,03,45,4.20
2020,12,06,03,46,4.20
2020,12,06,03,47,4.20
2020,12,06,03,48,4.10
2020,12,06,03,49,4.10
2020,12,06,03,50,4.10
2020,12,06,03,51,4.10
2020,12,06,03,52,4.00
2020,12,06,03,53,4.00
2020,12,06,03,54,3.90
2020,12,06,03,55,3.90
2020,12,06,03,56,3.90
2020,12,06,03,57,3.80
2020,12,06,03,58,3.80
2020,12,06,03,59,3.80
2020,12,06,04,00,3.90
2020,12,06,04,01,3.90
2020,12,06,04,02,3.90
2020,12,06,04,03,3.90
2020,12,06,04,04,4.00
2020,12,06,04,05,4.00
2020,12,06,04,06,4.00
2020,12,06,04,07,4.00
2020,12,06,04,08,4.00
2020,12,06,04,09,3.90
2020,12,06,04,10,3.90
2020,12,06,04,11,3.90
2020,12,06,04,12,4.00
2020,12,06,04,13,4.00
2020,12,06,04,14,4.00
2020,12,06,04,15,4.00
2020,12,06,04,16,4.00
2020,12,06,04,17,4.00
2020,12,06,04,18,4.00
2020,12,06,04,19,3.90
2020,12,06,04,20,3.90
2020,12,06,04,21,3.90
2020,12,06,04,22,3.90
2020,12,06,04,23,4.00
2020,12,06,04,24,4.00
2020,12,06,04,25,4.00
2020,12,06,04,26,4.10
2020,12,06,04,27,4.10
2020,12,06,04,28,4.10
2020,12,06,04,29,4.10
2020,12,06,04,30,4.20
2020,12,06,04,31,4.20
2020,12,06,04,32,4.20
2020,12,06,04,33,4.20
2020,12,06,04,34,4.20
2020,12,06,04,35,4.30
2020,12,06,04,36,4.30
2020,12,06,04,37,4.40
2020,12,06,04,38,4.40
2020,12,06,04,39,4.40
2020,12,06,04,40,4.40
2020,12,06,04,41,4.40
2020,12,06,04,42,4.40
2020,12,06,04,43,4.40
2020,12,06,04,44,4.40
2020,12,06,04,45,4.30
2020,12,06,04,46,4.30
2020,12,06,04,47,4.30
2020,12,06,04,48,4.30
2020,12,06,04,49,4.30
2020,12,06,04,50,4.30
2020,12,06,04,51,4.40
2020,12,06,04,52,4.40
2020,12,06,04,53,4.40
2020,12,06,04,54,4.40
2020,12,06,04,55,4.40
2020,12,06,04,56,4.40
2020,12,06,04,57,4.40
2020,12,06,04,58,4.40
2020,12,06,04,59,4.50
2020,12,06,05,00,4.50
2020,12,06,05,01,4.50
2020,12,06,05,02,4.50
2020,12,06,05,03,4.50
2020,12,06,05,04,4.50
2020,12,06,05,05,4.50
2020,12,06,05,06,4.50
2020,12,06,05,07,4.50
2020,12,06,05,08,4.50
2020,12,06,05,09,4.50
2020,12,06,05,10,4.50
2020,12,06,05,11,4.50
2020,12,06,05,12,4.50
2020,12,06,05,13,4.50
2020,12,06,05,14,4.50
2020,12,06,05,15,4.50
2020,12,06,05,16,4.50
2020,12,06,05,17,4.50
2020,12,06,05,18,4.60
2020,12,06,05,19,4.60
2020,12,06,05,20,4.60
2020,12,06,05,21,4.60
2020,12,06,05,22,4.50
2020,12,06,05,23,4.50
2020,12,06,05,24,4.50
2020,12,06,05,25,4.50
2020,12,06,05,26,4.50
2020,12,06,05,27,4.50
2020,12,06,05,28,4.50
2020,12,06,05,29,4.50
2020,12,06,05,30,4.50
2020,12,06,05,31,4.50
2020,12,06,05,32,4.40
2020,12,06,05,33,4.40
2020,12,06,05,34,4.40
2020,12,06,05,35,4.40
2020,12,06,05,36,4.50
2020,12,06,05,37,4.50
2020,12,06,05,38,4.50
2020,12,06,05,39,4.50
2020,12,06,05,40,4.50
2020,12,06,05,41,4.50
2020,12,06,05,42,4.50
2020,12,06,05,43,4.50
2020,12,06,05,44,4.60
2020,12,06,05,45,4.60
2020,12,06,05,46,4.60
2020,12,06,05,47,4.70
2020,12,06,05,48,4.70
2020,12,06,05,49,4.70
2020,12,06,05,50,4.70
2020,12,06,05,51,4.80
2020,12,06,05,52,4.80
2020,12,06,05,53,4.80
2020,12,06,05,54,4.80
2020,12,06,05,55,4.80
2020,12,06,05,56,4.80
2020,12,06,05,57,4.80
2020,12,06,05,58,4.80
2020,12,06,05,59,4.80
2020,12,06,06,00,4.90
2020,12,06,06,01,4.90
2020,12,06,06,02,4.90
2020,12,06,06,03,4.90
2020,12,06,06,04,4.90
2020,12,06,06,05,5.00
2020,12,06,06,06,5.00
2020,12,06,06,07,5.00
2020,12,06,06,08,5.00
2020,12,06,06,09,5.00
2020,12,06,06,10,5.00
2020,12,06,06,11,5.00
2020,12,06,06,12,5.00
2020,12,06,06,13,4.90
2020,12,06,06,14,4.90
2020,12,06,06,15,4.90
2020,12,06,06,16,4.80
2020,12,06,06,17,4.80
2020,12,06,06,18,4.80
2020,12,06,06,19,4.80
2020,12,06,06,20,4.80
2020,12,06,06,21,4.80
2020,12,06,06,22,4.80
2020,12,06,06,23,4.80
2020,12,06,06,24,4.80
2020,12,06,06,25,4.90
2020,12,06,06,26,4.90
2020,12,06,06,27,4.90
2020,12,06,06,28,4.90
2020,12,06,06,29,4.90
2020,12,06,06,30,4.90
2020,12,06,06,31,4.90
2020,12,06,06,32,4.90
2020,12,06,06,33,4.90
2020,12,06,06,34,4.90
2020,12,06,06,35,4.90
2020,12,06,06,36,4.90
2020,12,06,06,37,4.90
2020,12,06,06,38,4.90
2020,12,06,06,39,4.90
2020,12,06,06,40,4.90
2020,12,06,06,41,4.90
2020,12,06,06,42,4.90
2020,12,06,06,43,4.80
2020,12,06,06,44,4.80
2020,12,06,06,45,4.80
2020,12,06,06,46,4.80
2020,12,06,06,47,4.80
2020,12,06,06,48,4.80
2020,12,06,06,49,4.80
2020,12,06,06,50,4.80
2020,12,06,06,51,4.80
2020,12,06,06,52,4.90
2020,12,06,06,53,4.90
2020,12,06,06,54,4.90
2020,12,06,06,55,4.90
2020,12,06,06,56,4.90
2020,12,06,06,57,5.00
2020,12,06,06,58,4.90
2020,12,06,06,59,4.90
2020,12,06,07,00,4.90
2020,12,06,07,01,4.90
2020,12,06,07,02,4.90
2020,12,06,07,03,4.90
2020,12,06,07,04,4.90
2020,12,06,07,05,4.90
2020,12,06,07,06,4.90
2020,12,06,07,07,4.90
2020,12,06,07,08,4.90
2020,12,06,07,09,4.90
2020,12,06,07,10,4.90
2020,12,06,07,11,4.80
2020,12,06,07,12,4.80
2020,12,06,07,13,4.80
2020,12,06,07,14,4.80
2020,12,06,07,15,4.70
2020,12,06,07,16,4.70
2020,12,06,07,17,4.70
2020,12,06,07,18,4.70
2020,12,06,07,19,4.80
2020,12,06,07,20,4.80
2020,12,06,07,21,4.80
2020,12,06,07,22,4.80
2020,12,06,07,23,4.80
2020,12,06,07,24,4.80
2020,12,06,07,25,4.80
2020,12,06,07,26,4.70
2020,12,06,07,27,4.70
2020,12,06,07,28,4.70
2020,12,06,07,29,4.70
2020,12,06,07,30,4.70
2020,12,06,07,31,4.70
2020,12,06,07,32,4.60
2020,12,06,07,33,4.60
2020,12,06,07,34,4.60
2020,12,06,07,35,4.60
2020,12,06,07,36,4.60
2020,12,06,07,37,4.50
2020,12,06,07,38,4.50
2020,12,06,07,39,4.50
2020,12,06,07,40,4.40
2020,12,06,07,41,4.40
2020,12,06,07,42,4.40
2020,12,06,07,43,4.40
2020,12,06,07,44,4.30
2020,12,06,07,45,4.30
2020,12,06,07,46,4.30
2020,12,06,07,47,4.30
2020,12,06,07,48,4.30
2020,12,06,07,49,4.30
2020,12,06,07,50,4.20
2020,12,06,07,51,4.20
2020,12,06,07,52,4.20
2020,12,06,07,53,4.20
2020,12,06,07,54,4.20
2020,12,06,07,55,4.20
2020,12,06,07,56,4.20
2020,12,06,07,57,4.20
2020,12,06,07,58,4.10
2020,12,06,07,59,4.10
2020,12,06,08,00,4.10
2020,12,06,08,01,4.10
2020,12,06,08,02,4.10
2020,12,06,08,03,4.10
2020,12,06,08,04,4.10
2020,12,06,08,05,4.10
2020,12,06,08,06,4.10
2020,12,06,08,07,4.10
2020,12,06,08,08,4.00
2020,12,06,08,09,4.00
2020,12,06,08,10,3.90
2020,12,06,08,11,3.90
2020,12,06,08,12,3.90
2020,12,06,08,13,3.90
2020,12,06,08,14,3.90
2020,12,06,08,15,3.90
2020,12,06,08,16,3.90
2020,12,06,08,17,3.90
2020,12,06,08,18,3.90
2020,12,06,08,19,3.90
2020,12,06,08,20,3.90
2020,12,06,08,21,3.90
2020,12,06,08,22,3.90
2020,12,06,08,23,3.90
2020,12,06,08,24,3.90
2020,12,06,08,25,3.90
2020,12,06,08,26,4.00
2020,12,06,08,27,3.90
2020,12,06,08,28,3.90
2020,12,06,08,29,3.90
2020,12,06,08,30,3.90
2020,12,06,08,31,3.90
2020,12,06,08,32,3.90
2020,12,06,08,33,3.90
2020,12,06,08,34,3.90
2020,12,06,08,35,3.90
2020,12,06,08,36,3.90
2020,12,06,08,37,3.90
2020,12,06,08,38,3.90
2020,12,06,08,39,3.90
2020,12,06,08,40,3.90
2020,12,06,08,41,3.90
2020,12,06,08,42,3.90
2020,12,06,08,43,3.90
2020,12,06,08,44,3.90
2020,12,06,08,45,3.90
2020,12,06,08,46,3.90
2020,12,06,08,47,3.90
2020,12,06,08,48,3.90
2020,12,06,08,49,3.90
2020,12,06,08,50,3.90
2020,12,06,08,51,3.90
2020,12,06,08,52,3.90
2020,12,06,08,53,4.00
2020,12,06,08,54,4.00
2020,12,06,08,55,4.00
2020,12,06,08,56,4.00
2020,12,06,08,57,4.10
2020,12,06,08,58,4.10
2020,12,06,08,59,4.10
2020,12,06,09,00,4.20
2020,12,06,09,01,4.20
2020,12,06,09,02,4.20
2020,12,06,09,03,4.20
2020,12,06,09,04,4.20
2020,12,06,09,05,4.20
2020,12,06,09,06,4.20
2020,12,06,09,07,4.20
2020,12,06,09,08,4.20
2020,12,06,09,09,4.20
2020,12,06,09,10,4.20
2020,12,06,09,11,4.20
2020,12,06,09,12,4.30
2020,12,06,09,13,4.30
2020,12,06,09,14,4.30
2020,12,06,09,15,4.30
2020,12,06,09,16,4.30
2020,12,06,09,17,4.30
2020,12,06,09,18,4.30
2020,12,06,09,19,4.30
2020,12,06,09,20,4.30
2020,12,06,09,21,4.40
2020,12,06,09,22,4.40
2020,12,06,09,23,4.40
2020,12,06,09,24,4.40
2020,12,06,09,25,4.40
2020,12,06,09,26,4.50
2020,12,06,09,27,4.50
2020,12,06,09,28,4.50
2020,12,06,09,29,4.50
2020,12,06,09,30,4.50
2020,12,06,09,31,4.60
2020,12,06,09,32,4.60
2020,12,06,09,33,4.60
2020,12,06,09,34,4.60
2020,12,06,09,35,4.60
2020,12,06,09,36,4.70
2020,12,06,09,37,4.70
2020,12,06,09,38,4.70
2020,12,06,09,39,4.70
2020,12,06,09,40,4.70
2020,12,06,09,41,4.80
2020,12,06,09,42,4.80
2020,12,06,09,43,4.90
2020,12,06,09,44,4.90
2020,12,06,09,45,5.00
2020,12,06,09,46,5.00
2020,12,06,09,47,5.10
2020,12,06,09,48,5.10
2020,12,06,09,49,5.10
2020,12,06,09,50,5.20
2020,12,06,09,51,5.30
2020,12,06,09,52,5.30
2020,12,06,09,53,5.40
2020,12,06,09,54,5.50
2020,12,06,09,55,5.50
2020,12,06,09,56,5.60
2020,12,06,09,57,5.70
2020,12,06,09,58,5.80
2020,12,06,09,59,5.80
2020,12,06,10,00,5.90
2020,12,06,10,01,5.90
2020,12,06,10,02,6.00
2020,12,06,10,03,6.00
2020,12,06,10,04,6.10
2020,12,06,10,05,6.20
2020,12,06,10,06,6.20
2020,12,06,10,07,6.30
2020,12,06,10,08,6.30
2020,12,06,10,09,6.40
2020,12,06,10,10,6.40
2020,12,06,10,11,6.50
2020,12,06,10,12,6.50
2020,12,06,10,13,6.60
2020,12,06,10,14,6.70
2020,12,06,10,15,6.70
2020,12,06,10,16,6.80
2020,12,06,10,17,6.80
2020,12,06,10,18,6.80
2020,12,06,10,19,6.90
2020,12,06,10,20,6.90
2020,12,06,10,21,6.90
2020,12,06,10,22,7.00
2020,12,06,10,23,7.00
2020,12,06,10,24,7.00
2020,12,06,10,25,7.00
2020,12,06,10,26,7.10
2020,12,06,10,27,7.10
2020,12,06,10,28,7.20
2020,12,06,10,29,7.20
2020,12,06,10,30,7.30
2020,12,06,10,31,7.30
2020,12,06,10,32,7.40
2020,12,06,10,33,7.50
2020,12,06,10,34,7.50
2020,12,06,10,35,7.60
2020,12,06,10,36,7.60
2020,12,06,10,37,7.70
2020,12,06,10,38,7.70
2020,12,06,10,39,7.70
2020,12,06,10,40,7.80
2020,12,06,10,41,7.90
2020,12,06,10,42,8.00
2020,12,06,10,43,8.00
2020,12,06,10,44,8.10
2020,12,06,10,45,8.10
2020,12,06,10,46,8.10
2020,12,06,10,47,8.10
2020,12,06,10,48,8.10
2020,12,06,10,49,8.20
2020,12,06,10,50,8.20
2020,12,06,10,51,8.20
2020,12,06,10,52,8.30
2020,12,06,10,53,8.30
2020,12,06,10,54,8.30
2020,12,06,10,55,8.30
2020,12,06,10,56,8.40
2020,12,06,10,57,8.50
2020,12,06,10,58,8.50
2020,12,06,10,59,8.50
2020,12,06,11,00,8.60
2020,12,06,11,01,8.70
2020,12,06,11,02,8.70
2020,12,06,11,03,8.80
2020,12,06,11,04,8.80
2020,12,06,11,05,8.90
2020,12,06,11,06,8.90
2020,12,06,11,07,9.00
2020,12,06,11,08,9.10
2020,12,06,11,09,9.10
2020,12,06,11,10,9.20
2020,12,06,11,11,9.30
2020,12,06,11,12,9.30
2020,12,06,11,13,9.30
2020,12,06,11,14,9.40
2020,12,06,11,15,9.40
2020,12,06,11,16,9.50
2020,12,06,11,17,9.60
2020,12,06,11,18,9.60
2020,12,06,11,19,9.60
2020,12,06,11,20,9.60
2020,12,06,11,21,9.70
2020,12,06,11,22,9.70
2020,12,06,11,23,9.70
2020,12,06,11,24,9.70
2020,12,06,11,25,9.80
2020,12,06,11,26,9.80
2020,12,06,11,27,9.80
2020,12,06,11,28,9.80
2020,12,06,11,29,9.80
2020,12,06,11,30,9.80
2020,12,06,11,31,9.80
2020,12,06,11,32,9.80
2020,12,06,11,33,9.90
2020,12,06,11,34,9.90
2020,12,06,11,35,9.90
2020,12,06,11,36,9.90
2020,12,06,11,37,9.80
2020,12,06,11,38,9.80
2020,12,06,11,39,9.80
2020,12,06,11,40,9.80
2020,12,06,11,41,9.80
2020,12,06,11,42,9.80
2020,12,06,11,43,9.80
2020,12,06,11,44,9.80
2020,12,06,11,45,9.80
2020,12,06,11,46,9.80
2020,12,06,11,47,9.80
2020,12,06,11,48,9.80
2020,12,06,11,49,9.80
2020,12,06,11,50,9.90
2020,12,06,11,51,9.90
2020,12,06,11,52,9.90
2020,12,06,11,53,9.90
2020,12,06,11,54,9.90
2020,12,06,11,55,9.90
2020,12,06,11,56,9.90
2020,12,06,11,57,9.90
2020,12,06,11,58,9.90
2020,12,06,11,59,9.90
2020,12,06,12,00,9.90
2020,12,06,12,01,9.90
2020,12,06,12,02,9.90
2020,12,06,12,03,10.00
2020,12,06,12,04,10.00
2020,12,06,12,05,10.00
2020,12,06,12,06,10.00
2020,12,06,12,07,10.10
2020,12,06,12,08,10.10
2020,12,06,12,09,10.20
2020,12,06,12,10,10.20
2020,12,06,12,11,10.30
2020,12,06,12,12,10.40
2020,12,06,12,13,10.50
2020,12,06,12,14,10.50
2020,12,06,12,15,10.60
2020,12,06,12,16,10.60
2020,12,06,12,17,10.70
2020,12,06,12,18,10.70
2020,12,06,12,19,10.80
2020,12,06,12,20,10.90
2020,12,06,12,21,11.00
2020,12,06,12,22,11.20
2020,12,06,12,23,11.40
2020,12,06,12,24,11.60
2020,12,06,12,25,11.70
2020,12,06,12,26,11.80
2020,12,06,12,27,11.90
2020,12,06,12,28,12.00
2020,12,06,12,29,12.10
2020,12,06,12,30,12.10
2020,12,06,12,31,12.20
2020,12,06,12,32,12.30
2020,12,06,12,33,12.40
2020,12,06,12,34,12.40
2020,12,06,12,35,12.40
2020,12,06,12,36,12.40
2020,12,06,12,37,12.40
2020,12,06,12,38,12.50
2020,12,06,12,39,12.60
2020,12,06,12,40,12.60
2020,12,06,12,41,12.60
2020,12,06,12,42,12.70
2020,12,06,12,43,12.70
2020,12,06,12,44,12.70
2020,12,06,12,45,12.80
2020,12,06,12,46,12.80
2020,12,06,12,47,12.80
2020,12,06,12,48,12.90
2020,12,06,12,49,12.90
2020,12,06,12,50,12.80
2020,12,06,12,51,12.70
2020,12,06,12,52,12.60
2020,12,06,12,53,12.50
2020,12,06,12,54,12.50
2020,12,06,12,55,12.40
2020,12,06,12,56,12.40
2020,12,06,12,57,12.30
2020,12,06,12,58,12.30
2020,12,06,12,59,12.30
2020,12,06,13,00,12.30
2020,12,06,13,01,12.30
2020,12,06,13,02,12.30
2020,12,06,13,03,12.30
2020,12,06,13,04,12.30
2020,12,06,13,05,12.30
2020,12,06,13,06,12.30
2020,12,06,13,07,12.30
2020,12,06,13,08,12.30
2020,12,06,13,09,12.30
2020,12,06,13,10,12.30
2020,12,06,13,11,12.20
2020,12,06,13,12,12.20
2020,12,06,13,13,12.20
2020,12,06,13,14,12.20
2020,12,06,13,15,12.10
2020,12,06,13,16,12.10
2020,12,06,13,17,12.10
2020,12,06,13,18,12.00
2020,12,06,13,19,12.00
2020,12,06,13,20,12.00
2020,12,06,13,21,12.00
2020,12,06,13,22,12.00
2020,12,06,13,23,12.00
2020,12,06,13,24,11.90
2020,12,06,13,25,11.90
2020,12,06,13,26,11.90
2020,12,06,13,27,12.00
2020,12,06,13,28,12.00
2020,12,06,13,29,12.10
2020,12,06,13,30,12.10
2020,12,06,13,31,12.10
2020,12,06,13,32,12.20
2020,12,06,13,33,12.20
2020,12,06,13,34,12.20
2020,12,06,13,35,12.20
2020,12,06,13,36,12.30
2020,12,06,13,37,12.30
2020,12,06,13,38,12.40
2020,12,06,13,39,12.40
2020,12,06,13,40,12.40
2020,12,06,13,41,12.40
2020,12,06,13,42,12.40
2020,12,06,13,43,12.50
2020,12,06,13,44,12.50
2020,12,06,13,45,12.50
2020,12,06,13,46,12.50
2020,12,06,13,47,12.50
2020,12,06,13,48,12.40
2020,12,06,13,49,12.40
2020,12,06,13,50,12.40
2020,12,06,13,51,12.40
2020,12,06,13,52,12.40
2020,12,06,13,53,12.40
2020,12,06,13,54,12.30
2020,12,06,13,55,12.30
2020,12,06,13,56,12.30
2020,12,06,13,57,12.40
2020,12,06,13,58,12.40
2020,12,06,13,59,12.40
2020,12,06,14,00,12.50
2020,12,06,14,01,12.60
2020,12,06,14,02,12.60
2020,12,06,14,03,12.70
2020,12,06,14,04,12.70
2020,12,06,14,05,12.70
2020,12,06,14,06,12.70
2020,12,06,14,07,12.70
2020,12,06,14,08,12.70
2020,12,06,14,09,12.60
2020,12,06,14,10,12.60
2020,12,06,14,11,12.60
2020,12,06,14,12,12.50
2020,12,06,14,13,12.50
2020,12,06,14,14,12.40
2020,12,06,14,15,12.40
2020,12,06,14,16,12.40
2020,12,06,14,17,12.40
2020,12,06,14,18,12.30
2020,12,06,14,19,12.30
2020,12,06,14,20,12.30
2020,12,06,14,21,12.30
2020,12,06,14,22,12.30
2020,12,06,14,23,12.30
2020,12,06,14,24,12.20
2020,12,06,14,25,12.20
2020,12,06,14,26,12.20
2020,12,06,14,27,12.20
2020,12,06,14,28,12.20
2020,12,06,14,29,12.20
2020,12,06,14,30,12.20
2020,12,06,14,31,12.20
2020,12,06,14,32,12.10
2020,12,06,14,33,12.10
2020,12,06,14,34,12.10
2020,12,06,14,35,12.10
2020,12,06,14,36,12.00
2020,12,06,14,37,12.00
2020,12,06,14,38,11.90
2020,12,06,14,39,11.90
2020,12,06,14,40,11.80
2020,12,06,14,41,11.80
2020,12,06,14,42,11.70
2020,12,06,14,43,11.60
2020,12,06,14,44,11.50
2020,12,06,14,45,11.40
2020,12,06,14,46,11.30
2020,12,06,14,47,11.30
2020,12,06,14,48,11.20
2020,12,06,14,49,11.10
2020,12,06,14,50,11.00
2020,12,06,14,51,10.90
2020,12,06,14,52,10.80
2020,12,06,14,53,10.70
2020,12,06,14,54,10.60
2020,12,06,14,55,10.50
2020,12,06,14,56,10.50
2020,12,06,14,57,10.40
2020,12,06,14,58,10.30
2020,12,06,14,59,10.30
2020,12,06,15,00,10.30
2020,12,06,15,01,10.20
2020,12,06,15,02,10.20
2020,12,06,15,03,10.20
2020,12,06,15,04,10.20
2020,12,06,15,05,10.10
2020,12,06,15,06,10.10
2020,12,06,15,07,10.10
2020,12,06,15,08,10.10
2020,12,06,15,09,10.10
2020,12,06,15,10,10.10
2020,12,06,15,11,10.10
2020,12,06,15,12,10.00
2020,12,06,15,13,10.00
2020,12,06,15,14,10.00
2020,12,06,15,15,10.00
2020,12,06,15,16,10.00
2020,12,06,15,17,10.00
2020,12,06,15,18,10.00
2020,12,06,15,19,10.00
2020,12,06,15,20,10.00
2020,12,06,15,21,10.00
2020,12,06,15,22,10.00
2020,12,06,15,23,10.00
2020,12,06,15,24,10.00
2020,12,06,15,25,10.00
2020,12,06,15,26,9.90
2020,12,06,15,27,10.00
2020,12,06,15,28,10.00
2020,12,06,15,29,9.90
2020,12,06,15,30,9.90
2020,12,06,15,31,9.90
2020,12,06,15,32,9.90
2020,12,06,15,33,9.90
2020,12,06,15,34,9.90
2020,12,06,15,35,9.90
2020,12,06,15,36,9.90
2020,12,06,15,37,9.90
2020,12,06,15,38,9.90
2020,12,06,15,39,9.90
2020,12,06,15,40,9.90
2020,12,06,15,41,9.90
2020,12,06,15,42,9.90
2020,12,06,15,43,9.90
2020,12,06,15,44,9.90
2020,12,06,15,45,9.90
2020,12,06,15,46,9.90
2020,12,06,15,47,9.90
2020,12,06,15,48,9.90
2020,12,06,15,49,9.80
2020,12,06,15,50,9.80
2020,12,06,15,51,9.80
2020,12,06,15,52,9.80
2020,12,06,15,53,9.80
2020,12,06,15,54,9.80
2020,12,06,15,55,9.80
2020,12,06,15,56,9.80
2020,12,06,15,57,9.80
2020,12,06,15,58,9.80
2020,12,06,15,59,9.70
2020,12,06,16,00,9.70
2020,12,06,16,01,9.70
2020,12,06,16,02,9.70
2020,12,06,16,03,9.70
2020,12,06,16,04,9.60
2020,12,06,16,05,9.60
2020,12,06,16,06,9.60
2020,12,06,16,07,9.50
2020,12,06,16,08,9.50
2020,12,06,16,09,9.50
2020,12,06,16,10,9.40
2020,12,06,16,11,9.40
2020,12,06,16,12,9.40
2020,12,06,16,13,9.40
2020,12,06,16,14,9.40
2020,12,06,16,15,9.40
2020,12,06,16,16,9.40
2020,12,06,16,17,9.40
2020,12,06,16,18,9.40
2020,12,06,16,19,9.30
2020,12,06,16,20,9.30
2020,12,06,16,21,9.30
2020,12,06,16,22,9.30
2020,12,06,16,23,9.30
2020,12,06,16,24,9.20
2020,12,06,16,25,9.20
2020,12,06,16,26,9.20
2020,12,06,16,27,9.20
2020,12,06,16,28,9.10
2020,12,06,16,29,9.10
2020,12,06,16,30,9.10
2020,12,06,16,31,9.00
2020,12,06,16,32,9.00
2020,12,06,16,33,9.00
2020,12,06,16,34,9.00
2020,12,06,16,35,8.90
2020,12,06,16,36,8.90
2020,12,06,16,37,8.90
2020,12,06,16,38,8.90
2020,12,06,16,39,8.90
2020,12,06,16,40,8.90
2020,12,06,16,41,8.90
2020,12,06,16,42,8.90
2020,12,06,16,43,8.90
2020,12,06,16,44,8.90
2020,12,06,16,45,8.90
2020,12,06,16,46,8.90
2020,12,06,16,47,8.80
2020,12,06,16,48,8.80
2020,12,06,16,49,8.80
2020,12,06,16,50,8.80
2020,12,06,16,51,8.80
2020,12,06,16,52,8.80
2020,12,06,16,53,8.80
2020,12,06,16,54,8.80
2020,12,06,16,55,8.80
2020,12,06,16,56,8.80
2020,12,06,16,57,8.80
2020,12,06,16,58,8.80
2020,12,06,16,59,8.80
2020,12,06,17,00,8.80
2020,12,06,17,01,8.80
2020,12,06,17,02,8.80
2020,12,06,17,03,8.70
2020,12,06,17,04,8.70
2020,12,06,17,05,8.70
2020,12,06,17,06,8.70
2020,12,06,17,07,8.70
2020,12,06,17,08,8.70
2020,12,06,17,09,8.70
2020,12,06,17,10,8.70
2020,12,06,17,11,8.70
2020,12,06,17,12,8.70
2020,12,06,17,13,8.70
2020,12,06,17,14,8.70
2020,12,06,17,15,8.70
2020,12,06,17,16,8.70
2020,12,06,17,17,8.70
2020,12,06,17,18,8.70
2020,12,06,17,19,8.70
2020,12,06,17,20,8.70
2020,12,06,17,21,8.70
2020,12,06,17,22,8.70
2020,12,06,17,23,8.70
2020,12,06,17,24,8.70
2020,12,06,17,25,8.70
2020,12,06,17,26,8.70
2020,12,06,17,27,8.70
2020,12,06,17,28,8.60
2020,12,06,17,29,8.60
2020,12,06,17,30,8.60
2020,12,06,17,31,8.60
2020,12,06,17,32,8.60
2020,12,06,17,33,8.60
2020,12,06,17,34,8.60
2020,12,06,17,35,8.60
2020,12,06,17,36,8.60
2020,12,06,17,37,8.60
2020,12,06,17,38,8.60
2020,12,06,17,39,8.50
2020,12,06,17,40,8.60
2020,12,06,17,41,8.60
2020,12,06,17,42,8.60
2020,12,06,17,43,8.60
2020,12,06,17,44,8.60
2020,12,06,17,45,8.60
2020,12,06,17,46,8.50
2020,12,06,17,47,8.60
2020,12,06,17,48,8.50
2020,12,06,17,49,8.50
2020,12,06,17,50,8.50
2020,12,06,17,51,8.50
2020,12,06,17,52,8.50
2020,12,06,17,53,8.50
2020,12,06,17,54,8.50
2020,12,06,17,55,8.50
2020,12,06,17,56,8.40
2020,12,06,17,57,8.40